Time,TemperatureF,DewpointF,PressureIn,WindDirection,WindDirectionDegrees,WindSpeedMPH,WindSpeedGustMPH,Humidity,HourlyPrecipIn,Conditions,Clouds,dailyrainin,SoftwareType,DateUTC
2013-12-10 00:14:00,-5.4,-13.2,30.25,WNW,292,0.0,-999.0,68,-99.99,,,0.00,Acu-Link.com,2013-12-10 07:14:00,
2013-12-10 00:29:00,-5.8,-13.3,30.24,WNW,292,0.0,-999.0,69,-99.99,,,0.00,Acu-Link.com,2013-12-10 07:29:00,
2013-12-10 00:44:00,-4.5,-12.0,30.24,WNW,292,0.0,-999.0,69,-99.99,,,0.00,Acu-Link.com,2013-12-10 07:44:00,
2013-12-10 00:59:00,-3.8,-12.3,30.24,West,270,0.0,-999.0,66,-99.99,,,0.00,Acu-Link.com,2013-12-10 07:59:00,
2013-12-10 01:14:00,-5.8,-13.9,30.24,West,270,0.0,-999.0,67,-99.99,,,0.00,Acu-Link.com,2013-12-10 08:14:00,
2013-12-10 01:29:00,-5.8,-13.3,30.25,West,270,0.0,-999.0,69,-99.99,,,0.00,Acu-Link.com,2013-12-10 08:29:00,
2013-12-10 01:45:00,-6.5,-14.3,30.25,WNW,292,0.0,-999.0,68,-99.99,,,0.00,Acu-Link.com,2013-12-10 08:45:00,
2013-12-10 02:00:00,-6.2,-13.7,30.25,West,270,0.0,-999.0,69,-99.99,,,0.00,Acu-Link.com,2013-12-10 09:00:00,
2013-12-10 02:15:00,-6.9,-14.6,30.26,West,270,0.0,-999.0,68,-99.99,,,0.00,Acu-Link.com,2013-12-10 09:15:00,
2013-12-10 02:30:00,-7.2,-14.6,30.26,WNW,292,0.0,-999.0,69,-99.99,,,0.00,Acu-Link.com,2013-12-10 09:30:00,
2013-12-10 02:46:00,-7.4,-14.8,30.27,West,270,0.0,-999.0,69,-99.99,,,0.00,Acu-Link.com,2013-12-10 09:46:00,
2013-12-10 03:01:00,-6.9,-14.1,30.28,West,270,0.0,-999.0,70,-99.99,,,0.00,Acu-Link.com,2013-12-10 10:01:00,
2013-12-10 03:16:00,-6.0,-13.2,30.28,West,270,1.7,-999.0,70,-99.99,,,0.00,Acu-Link.com,2013-12-10 10:16:00,
2013-12-10 03:31:00,-7.2,-14.9,30.28,West,270,0.0,-999.0,68,-99.99,,,0.00,Acu-Link.com,2013-12-10 10:31:00,
2013-12-10 03:47:00,-8.1,-15.8,30.28,West,270,0.0,-999.0,68,-99.99,,,0.00,Acu-Link.com,2013-12-10 10:47:00,
2013-12-10 04:02:00,-8.7,-16.1,30.28,West,270,0.0,-999.0,69,-99.99,,,0.00,Acu-Link.com,2013-12-10 11:02:00,
2013-12-10 04:17:00,-7.4,-14.5,30.27,West,270,1.7,-999.0,70,-99.99,,,0.00,Acu-Link.com,2013-12-10 11:17:00,
2013-12-10 04:32:00,-6.3,-13.8,30.26,West,270,2.2,-999.0,69,-99.99,,,0.00,Acu-Link.com,2013-12-10 11:32:00,
2013-12-10 04:47:00,-7.4,-15.4,30.25,West,270,1.1,-999.0,67,-99.99,,,0.00,Acu-Link.com,2013-12-10 11:47:00,
2013-12-10 05:03:00,-7.6,-15.3,30.25,West,270,0.0,-999.0,68,-99.99,,,0.00,Acu-Link.com,2013-12-10 12:03:00,
2013-12-10 05:18:00,-7.8,-15.5,30.23,West,270,0.0,-999.0,68,-99.99,,,0.00,Acu-Link.com,2013-12-10 12:18:00,
2013-12-10 05:33:00,-7.6,-15.3,30.23,West,270,1.1,-999.0,68,-99.99,,,0.00,Acu-Link.com,2013-12-10 12:33:00,
2013-12-10 05:48:00,-7.8,-15.5,30.22,West,270,0.0,-999.0,68,-99.99,,,0.00,Acu-Link.com,2013-12-10 12:48:00,
2013-12-10 06:03:00,-8.5,-16.5,30.22,West,270,0.0,-999.0,67,-99.99,,,0.00,Acu-Link.com,2013-12-10 13:03:00,
2013-12-10 06:19:00,-9.0,-16.7,30.22,West,270,0.0,-999.0,68,-99.99,,,0.00,Acu-Link.com,2013-12-10 13:19:00,
2013-12-10 06:34:00,-9.8,-17.7,30.22,West,270,0.0,-999.0,67,-99.99,,,0.00,Acu-Link.com,2013-12-10 13:34:00,
2013-12-10 06:49:00,-9.9,-17.5,30.22,West,270,0.0,-999.0,68,-99.99,,,0.00,Acu-Link.com,2013-12-10 13:49:00,
2013-12-10 07:04:00,-9.9,-17.0,30.24,West,270,0.0,-999.0,70,-99.99,,,0.00,Acu-Link.com,2013-12-10 14:04:00,
2013-12-10 07:19:00,-8.7,-15.5,30.22,West,270,0.0,-999.0,71,-99.99,,,0.00,Acu-Link.com,2013-12-10 14:19:00,
2013-12-10 07:34:00,-9.0,-16.4,30.22,West,270,0.0,-999.0,69,-99.99,,,0.00,Acu-Link.com,2013-12-10 14:34:00,
2013-12-10 07:50:00,-8.7,-16.1,30.22,West,270,0.0,-999.0,69,-99.99,,,0.00,Acu-Link.com,2013-12-10 14:50:00,
2013-12-10 08:05:00,-2.6,-9.1,30.23,West,270,0.0,-999.0,73,-99.99,,,0.00,Acu-Link.com,2013-12-10 15:05:00,
2013-12-10 08:20:00,3.6,-4.3,30.23,West,270,0.0,-999.0,69,-99.99,,,0.00,Acu-Link.com,2013-12-10 15:20:00,
2013-12-10 08:35:00,8.1,-2.5,30.22,West,270,0.0,-999.0,61,-99.99,,,0.00,Acu-Link.com,2013-12-10 15:35:00,
2013-12-10 08:50:00,10.2,-2.0,30.22,West,270,0.0,-999.0,57,-99.99,,,0.00,Acu-Link.com,2013-12-10 15:50:00,
2013-12-10 09:06:00,14.9,0.9,30.21,West,270,0.0,-999.0,53,-99.99,,,0.00,Acu-Link.com,2013-12-10 16:06:00,
2013-12-10 09:21:00,13.6,-1.5,30.21,West,270,0.0,-999.0,50,-99.99,,,0.00,Acu-Link.com,2013-12-10 16:21:00,
2013-12-10 09:36:00,21.7,4.6,30.21,West,270,0.0,-999.0,47,-99.99,,,0.00,Acu-Link.com,2013-12-10 16:36:00,
2013-12-10 09:51:00,21.2,1.7,30.21,West,270,1.1,-999.0,42,-99.99,,,0.00,Acu-Link.com,2013-12-10 16:51:00,
2013-12-10 10:06:00,25.7,5.3,30.20,West,270,1.7,-999.0,41,-99.99,,,0.00,Acu-Link.com,2013-12-10 17:06:00,
2013-12-10 10:22:00,27.9,5.6,30.20,West,270,2.2,-999.0,38,-99.99,,,0.00,Acu-Link.com,2013-12-10 17:22:00,
2013-12-10 10:37:00,26.8,4.6,30.19,West,270,1.1,-999.0,38,-99.99,,,0.00,Acu-Link.com,2013-12-10 17:37:00,
2013-12-10 10:52:00,28.9,4.7,30.18,West,270,0.0,-999.0,35,-99.99,,,0.00,Acu-Link.com,2013-12-10 17:52:00,
2013-12-10 11:07:00,32.9,6.3,30.17,SW,225,2.7,-999.0,32,-99.99,,,0.00,Acu-Link.com,2013-12-10 18:07:00,
2013-12-10 11:23:00,33.8,6.4,30.17,SW,225,0.0,-999.0,31,-99.99,,,0.00,Acu-Link.com,2013-12-10 18:23:00,
2013-12-10 11:38:00,34.2,6.0,30.15,SW,225,2.2,-999.0,30,-99.99,,,0.00,Acu-Link.com,2013-12-10 18:38:00,
2013-12-10 11:53:00,35.2,5.4,30.14,West,270,0.0,-999.0,28,-99.99,,,0.00,Acu-Link.com,2013-12-10 18:53:00,
2013-12-10 12:08:00,35.1,4.5,30.13,West,270,1.1,-999.0,27,-99.99,,,0.00,Acu-Link.com,2013-12-10 19:08:00,
2013-12-10 12:23:00,35.6,2.4,30.12,West,270,0.0,-999.0,24,-99.99,,,0.00,Acu-Link.com,2013-12-10 19:23:00,
2013-12-10 12:38:00,36.9,4.4,30.11,West,270,1.7,-999.0,25,-99.99,,,0.00,Acu-Link.com,2013-12-10 19:38:00,
2013-12-10 12:54:00,32.9,1.8,30.10,West,270,2.2,-999.0,26,-99.99,,,0.00,Acu-Link.com,2013-12-10 19:54:00,
2013-12-10 13:09:00,36.5,5.7,30.09,SW,225,2.2,-999.0,27,-99.99,,,0.00,Acu-Link.com,2013-12-10 20:09:00,
2013-12-10 13:24:00,36.0,3.6,30.09,West,270,0.0,-999.0,25,-99.99,,,0.00,Acu-Link.com,2013-12-10 20:24:00,
2013-12-10 13:39:00,36.7,5.9,30.08,West,270,0.0,-999.0,27,-99.99,,,0.00,Acu-Link.com,2013-12-10 20:39:00,
2013-12-10 13:54:00,39.2,7.2,30.08,SW,225,1.1,-999.0,26,-99.99,,,0.00,Acu-Link.com,2013-12-10 20:54:00,
2013-12-10 14:10:00,37.8,6.0,30.07,SW,225,0.0,-999.0,26,-99.99,,,0.00,Acu-Link.com,2013-12-10 21:10:00,
2013-12-10 14:25:00,37.4,4.8,30.08,West,270,0.0,-999.0,25,-99.99,,,0.00,Acu-Link.com,2013-12-10 21:25:00,
2013-12-10 14:40:00,38.5,4.9,30.07,NNW,337,1.1,-999.0,24,-99.99,,,0.00,Acu-Link.com,2013-12-10 21:40:00,
2013-12-10 14:55:00,37.6,5.9,30.07,NNW,337,0.0,-999.0,26,-99.99,,,0.00,Acu-Link.com,2013-12-10 21:55:00,
2013-12-10 15:10:00,33.6,4.0,30.06,NNW,337,3.2,-999.0,28,-99.99,,,0.00,Acu-Link.com,2013-12-10 22:10:00,
2013-12-10 15:25:00,32.5,4.6,30.06,NNW,337,0.0,-999.0,30,-99.99,,,0.00,Acu-Link.com,2013-12-10 22:25:00,
2013-12-10 15:40:00,33.1,4.3,30.07,North,0,0.0,-999.0,29,-99.99,,,0.00,Acu-Link.com,2013-12-10 22:40:00,
2013-12-10 15:56:00,31.8,4.7,30.07,East,90,1.1,-999.0,31,-99.99,,,0.00,Acu-Link.com,2013-12-10 22:56:00,
2013-12-10 16:11:00,29.5,4.6,30.07,WNW,292,0.0,-999.0,34,-99.99,,,0.00,Acu-Link.com,2013-12-10 23:11:00,
2013-12-10 16:26:00,26.8,4.1,30.07,WNW,292,0.0,-999.0,37,-99.99,,,0.00,Acu-Link.com,2013-12-10 23:26:00,
2013-12-10 16:41:00,24.3,3.5,30.08,WNW,292,0.0,-999.0,40,-99.99,,,0.00,Acu-Link.com,2013-12-10 23:41:00,
2013-12-10 16:56:00,22.5,4.4,30.07,SE,135,0.0,-999.0,45,-99.99,,,0.00,Acu-Link.com,2013-12-10 23:56:00,
2013-12-10 17:11:00,19.9,3.9,30.08,SE,135,0.0,-999.0,49,-99.99,,,0.00,Acu-Link.com,2013-12-11 00:11:00,
2013-12-10 17:27:00,17.8,3.6,30.08,SE,135,3.2,-999.0,53,-99.99,,,0.00,Acu-Link.com,2013-12-11 00:27:00,
2013-12-10 17:42:00,16.9,3.6,30.08,SE,135,2.2,-999.0,55,-99.99,,,0.00,Acu-Link.com,2013-12-11 00:42:00,
2013-12-10 17:57:00,16.0,3.5,30.08,SE,135,2.7,-999.0,57,-99.99,,,0.00,Acu-Link.com,2013-12-11 00:57:00,
2013-12-10 18:12:00,15.4,3.3,30.09,SE,135,2.2,-999.0,58,-99.99,,,0.00,Acu-Link.com,2013-12-11 01:12:00,
2013-12-10 18:27:00,15.3,3.6,30.09,SE,135,3.2,-999.0,59,-99.99,,,0.00,Acu-Link.com,2013-12-11 01:27:00,
2013-12-10 18:43:00,15.1,3.4,30.08,SE,135,2.7,-999.0,59,-99.99,,,0.00,Acu-Link.com,2013-12-11 01:43:00,
2013-12-10 18:58:00,14.9,3.6,30.08,SE,135,3.2,-999.0,60,-99.99,,,0.00,Acu-Link.com,2013-12-11 01:58:00,
2013-12-10 19:13:00,14.7,3.4,30.09,SE,135,2.7,-999.0,60,-99.99,,,0.00,Acu-Link.com,2013-12-11 02:13:00,
2013-12-10 19:28:00,14.4,3.1,30.08,SE,135,2.7,-999.0,60,-99.99,,,0.00,Acu-Link.com,2013-12-11 02:28:00,
2013-12-10 19:43:00,13.6,2.7,30.10,SE,135,0.0,-999.0,61,-99.99,,,0.00,Acu-Link.com,2013-12-11 02:43:00,
2013-12-10 19:58:00,12.6,1.7,30.10,SSE,157,0.0,-999.0,61,-99.99,,,0.00,Acu-Link.com,2013-12-11 02:58:00,
2013-12-10 20:14:00,11.7,1.9,30.11,SSE,157,0.0,-999.0,64,-99.99,,,0.00,Acu-Link.com,2013-12-11 03:14:00,
2013-12-10 20:29:00,10.6,0.9,30.12,SSE,157,0.0,-999.0,64,-99.99,,,0.00,Acu-Link.com,2013-12-11 03:29:00,
2013-12-10 20:44:00,9.5,0.5,30.10,SSE,157,0.0,-999.0,66,-99.99,,,0.00,Acu-Link.com,2013-12-11 03:44:00,
2013-12-10 20:59:00,8.1,-0.6,30.12,SSE,157,0.0,-999.0,67,-99.99,,,0.00,Acu-Link.com,2013-12-11 03:59:00,
2013-12-10 21:14:00,7.2,-1.1,30.11,SSE,157,0.0,-999.0,68,-99.99,,,0.00,Acu-Link.com,2013-12-11 04:14:00,
2013-12-10 21:29:00,6.6,-1.1,30.10,SSE,157,0.0,-999.0,70,-99.99,,,0.00,Acu-Link.com,2013-12-11 04:29:00,
2013-12-10 21:45:00,5.9,-1.1,30.11,SSE,157,0.0,-999.0,72,-99.99,,,0.00,Acu-Link.com,2013-12-11 04:45:00,
2013-12-10 22:00:00,5.4,-1.6,30.12,SSE,157,0.0,-999.0,72,-99.99,,,0.00,Acu-Link.com,2013-12-11 05:00:00,
2013-12-10 22:15:00,5.5,-1.2,30.12,SSE,157,0.0,-999.0,73,-99.99,,,0.00,Acu-Link.com,2013-12-11 05:15:00,
2013-12-10 22:30:00,5.7,-1.1,30.13,SSE,157,0.0,-999.0,73,-99.99,,,0.00,Acu-Link.com,2013-12-11 05:30:00,
2013-12-10 22:46:00,4.6,-2.4,30.13,SSE,157,0.0,-999.0,72,-99.99,,,0.00,Acu-Link.com,2013-12-11 05:46:00,
2013-12-10 23:01:00,3.9,-3.1,30.13,SSE,157,0.0,-999.0,72,-99.99,,,0.00,Acu-Link.com,2013-12-11 06:01:00,
2013-12-10 23:16:00,3.2,-3.8,30.14,SSE,157,0.0,-999.0,72,-99.99,,,0.00,Acu-Link.com,2013-12-11 06:16:00,
2013-12-10 23:31:00,2.7,-4.2,30.14,SSE,157,0.0,-999.0,72,-99.99,,,0.00,Acu-Link.com,2013-12-11 06:31:00,
2013-12-10 23:46:00,1.4,-5.2,30.15,SSE,157,0.0,-999.0,73,-99.99,,,0.00,Acu-Link.com,2013-12-11 06:46:00,